User: anonymous   Login
Location: Erlenbrunn
(49.1717°N, 7.6142°E)
Time: 01:43:46
(UTC+00:00)
Language:

SL-16 R/B - Orbit

View from above orbital plane
View from above orbital plane
View from above satellite
View from above satellite

Ground track
Ground track

The orbit data is extracted from the following two-line orbital elements,

1 28353U 04021B   21060.31280105 -.00000221  00000-0 -90697-4 0  9999
2 28353  71.0011 120.6186 0007526 294.0859  65.9475 14.14242107863452
Epoch (UTC): 01 March 2021 07:30:26
Eccentricity: 0.0007526
inclination: 71.0011°
perigee height: 839 km
apogee height: 850 km
right ascension of ascending node: 120.6186°
argument of perigee: 294.0859°
revolutions per day: 14.14242107
mean anomaly at epoch: 65.9475°
orbit number at epoch: 86345

The dashed part of the orbit path shows where the satellite is in the earth's shadow,  

DLR